Miscellaneous Local Product
Issued by NWS Hastings, NE

Home | Current Version | Previous Version | Graphics & Text | Print | Product List | Glossary On
Versions: 1 2 3 4 5 6 7 8 9 10 11 12 13 14 15 16 17 18 19 20 21 22 23 24 25 26 27 28 29 30 31 32 33 34 35 36 37 38 39 40 41 42 43 44 45 46 47 48 49 50
000
AXUS43 KGID 241102
MISGRI

GID CWA HOURLY WEATHER ROUNDUP
NATIONAL WEATHER SERVICE HASTINGS NE
500 AM CST SAT JAN 24 2015

NOTE: "FAIR" INDICATES FEW OR NO CLOUDS BELOW 12,000 FEET WITH NO
SIGNIFICANT WEATHER AND/OR OBSTRUCTIONS TO VISIBILITY.

...SOUTH CENTRAL NEBRASKA...

CITY           SKY/WX    TMP DP  RH WIND       PRES   REMARKS
GRAND ISLAND   CLEAR     30  25  81 W10       29.99F WCI  21
HASTINGS       CLEAR     30  24  78 W12       30.00S WCI  20
KEARNEY        CLEAR     34  25  69 W13       30.01F WCI  25
ORD            CLEAR     33  26  75 NW6       29.96F WCI  28
YORK           CLEAR     32  28  86 W13       29.97F WCI  22
AURORA         CLEAR     32  27  79 W12       29.98F WCI  23
LEXINGTON      PTCLDY    28  25  89 W8        30.03F WCI  19
HOLDREGE       CLEAR     28  25  86 W8        30.03F WCI  20
HEBRON         CLEAR     32  26  78 W8        30.01S WCI  24

...NEBRASKA PANHANDLE...

CITY           SKY/WX    TMP DP  RH WIND       PRES   REMARKS
CHADRON        PTCLDY    35  24  64 SW5       30.00F WCI  31
ALLIANCE       CLEAR     28  22  78 W12       30.03F WCI  18
SCOTTSBLUFF    CLEAR     24  20  84 NW8       30.07F WCI  15
SIDNEY         CLEAR     32  21  64 W16       30.08F WCI  21

...WESTERN AND NORTH CENTRAL NEBRASKA...

CITY           SKY/WX    TMP DP  RH WIND       PRES   REMARKS
VALENTINE      CLEAR     27  24  89 W6        29.95F WCI  20
AINSWORTH      CLEAR     33  27  79 W9        29.94F WCI  25
ONEILL         PTCLDY    35  29  80 W10       29.92F WCI  27
BROKEN BOW     PTCLDY    36  27  69 NW13      29.97F WCI  27
IMPERIAL       PTCLDY    31  22  69 W15       30.08F WCI  20
NORTH PLATTE   PTCLDY    22  19  89 NW7       30.04F WCI  13
MCCOOK         CLEAR     29  24  82 W10       30.08R WCI  20

...EASTERN NEBRASKA...

CITY           SKY/WX    TMP DP  RH WIND       PRES   REMARKS
NORFOLK        CLEAR     34  28  79 W12       29.91F WCI  25
SO SIOUX CITY  CLEAR     28  26  92 S3        29.89F
TEKAMAH        CLEAR     30  26  85 SW6       29.92S WCI  24
COLUMBUS       CLEAR     30  23  74 W7        29.96S WCI  23
ALBION         CLEAR     35  27  74 NW7       29.94F WCI  29
OMAHA EPPLEY   CLEAR     27  24  89 CALM      29.93F
OFFUTT AFB     CLEAR     30  27  88 W8        29.92F WCI  22
MILLARD        CLEAR     30  27  88 CALM      29.93F
LINCOLN        CLEAR     32  26  78 W5        29.96F WCI  27
NEBRASKA CITY  CLEAR     31  26  83 W8        29.95S WCI  23
BEATRICE       CLEAR     26  24  91 SW7       29.97F WCI  18
FALLS CITY     CLEAR     31  27  85 W12       29.95F WCI  22

...NORTHERN KANSAS...

CITY           SKY/WX    TMP DP  RH WIND       PRES   REMARKS
GOODLAND       CLEAR     30  25  81 W10       30.11S WCI  21
HILL CITY      CLEAR     31  25  78 W7        30.08F WCI  24
NORTON         SUNNY     34  25  69 W10       30.06R WCI  26
PHILLIPSBURG   CLEAR     32  27  80 W8        30.07S WCI  25
SMITH CENTER   CLEAR     27  23  86 W8        30.06S WCI  18
BELOIT         CLEAR     28  25  86 W3        30.04S
HAYS           CLEAR     30  19  64 W8        30.08F WCI  23
RUSSELL        CLEAR     31  26  82 W12       30.06S WCI  22
CONCORDIA      CLEAR     32  27  81 W12       30.02S WCI  23
SALINA         CLEAR     34  27  75 W9        30.06S WCI  27
TOPEKA         CLEAR     30  25  81 W5        29.99S WCI  25



USA.gov is the U.S. government's official web portal to all federal, state and local government web resources and services.